Location: �terpigny
(49.8910°N, 2.9249°E)
Time: 15:46:19
(UTC+00:00)

USA 215 - Pass Details

Date: 24 October 2021
Orbit: 1099 x 1109 km, 123.0° (Epoch: 20 November)

Event Time Altitude Azimuth Distance (km) Brightness Sun altitude
Exits shadow 19:08:35 31° 47° (NE) 1,834 4.1 -24.6°
Maximum altitude 19:11:37 55° 346° (NNW) 1,313 3.7 -25.1°
Drops below altitude 10° 19:17:57 10° 271° (W) 2,964 6.5 -26.1°
Sets 19:20:29 0° 267° (W) 3,923 7.3 -26.5°
